User: anonymous   Login
Location: Unspecified
(0.0000°N, 0.0000°E)
Time: 16:38:07
(UTC+00:00)
Language:

NOAA 15 - Orbit

View from above orbital plane
View from above orbital plane
View from above satellite
View from above satellite

Ground track
Ground track

The orbit data is extracted from the following two-line orbital elements,

1 25338U 98030A   18264.88897393 +.00000034 +00000-0 +33308-4 0  9995
2 25338 098.7671 281.3732 0009593 310.6292 049.4053 14.25875938058545
Epoch (UTC): 21 September 2018 21:20:07
Eccentricity: 0.0009593
inclination: 98.7671°
perigee height: 798 km
apogee height: 812 km
right ascension of ascending node: 281.3732°
argument of perigee: 310.6292°
revolutions per day: 14.25875938
mean anomaly at epoch: 49.4053°
orbit number at epoch: 5854

The dashed part of the orbit path shows where the satellite is in the earth's shadow,  

DLR